History for KNJHOBOK30

Greenwich Village, Hoboken, NJ — Current Conditions
Daily Summary for August 22, 2017
  Current: High: Low: Average:
Temperature: 84.4°F 84.6°F 76.5°F 80.6°F
Dew Point: 75.0°F 78.2°F 70.8°F 74.7°F
Humidity: 73% 97% 73% 87%
Wind Speed: - 0.0mph - 0.0mph
Wind Gust: - 0.0mph - -
Wind: North - - North
Pressure: 29.78in 30.10in 29.78in -
Precipitation: 0.00in      
Statistics for the rest of the month
    High: Low: Average:
Temperature:   84.6°F 68.4°F 75.4°F
Dew Point:   80.1°F 52.2°F 68.9°F
Humidity:   100.0% 44.0% 82.0%
Wind Speed:   0.0mph from the North - 0.0mph
Wind Gust:   0.0mph from the North - -
Wind:   - - North
Pressure:   30.25in 29.76in -
Precipitation:   0.00in    
KNJHOBOK30 Weather Graph
Tabular Data for August 22, 2017
Time Temp. Heat Index Dew Point Pressure Wind Gust Humidity Rainfall
00:19 78.1°F - 70.8°F 30.10in - 78% -
00:26 78.1°F - 70.8°F 30.10in - 78% -
00:39 77.9°F - 71.0°F 30.09in - 79% -
00:49 77.9°F - 71.0°F 30.09in - 79% -
01:09 77.7°F - 71.2°F 30.08in - 80% -
01:19 77.7°F - 71.2°F 30.08in - 80% -
01:40 77.5°F - 71.4°F 30.07in - 81% -
02:00 77.5°F - 71.4°F 30.06in - 81% -
02:10 77.4°F - 71.2°F 30.06in - 81% -
02:30 77.4°F - 71.6°F 30.06in - 82% -
02:40 77.4°F - 71.6°F 30.06in - 82% -
03:00 77.2°F - 71.7°F 30.06in - 83% -
03:10 77.2°F - 72.1°F 30.06in - 84% -
03:31 77.2°F - 72.4°F 30.04in - 85% -
03:41 77.0°F - 72.2°F 30.04in - 85% -
04:11 76.8°F - 73.1°F 30.04in - 88% -
04:31 76.6°F - 73.5°F 30.04in - 90% -
04:41 76.6°F - 73.9°F 30.03in - 91% -
05:01 76.6°F - 73.9°F 30.03in - 91% -
05:11 76.6°F - 74.2°F 30.03in - 92% -
05:32 76.5°F - 74.3°F 30.03in - 93% -
05:42 76.5°F - 74.3°F 30.03in - 93% -
06:02 76.5°F - 74.3°F 30.03in - 93% -
06:12 76.5°F - 74.3°F 30.03in - 93% -
06:32 76.5°F - 74.6°F 30.03in - 94% -
06:42 76.5°F - 74.6°F 30.03in - 94% -
07:02 76.5°F - 74.6°F 30.03in - 94% -
07:12 76.5°F - 74.6°F 30.03in - 94% -
07:43 76.5°F - 74.6°F 30.03in - 94% -
08:13 76.6°F - 75.4°F 30.02in - 96% -
08:33 76.6°F - 75.7°F 30.02in - 97% -
08:43 76.8°F - 75.9°F 30.01in - 97% -
09:03 77.0°F - 76.1°F 30.01in - 97% -
09:13 77.2°F - 76.3°F 30.01in - 97% -
09:34 77.4°F - 76.2°F 30.00in - 96% -
09:44 77.4°F - 75.8°F 30.00in - 95% -
10:14 77.9°F - 76.4°F 30.00in - 95% -
10:44 78.3°F - 76.4°F 29.99in - 94% -
11:14 78.8°F - 76.7°F 29.99in - 93% -
11:45 79.2°F - 77.0°F 29.97in - 93% -
12:15 79.7°F - 77.2°F 29.95in - 92% -
12:45 80.2°F 86.5°F 77.8°F 29.94in - 92% -
13:16 80.6°F 87.7°F 78.1°F 29.94in - 92% -
13:46 81.3°F 89.4°F 78.2°F 29.92in - 90% -
14:16 81.7°F 90.0°F 77.9°F 29.90in - 88% -
14:26 81.7°F 90.0°F 77.9°F 29.90in - 88% -
14:56 81.9°F 90.4°F 77.7°F 29.88in - 87% -
15:17 81.7°F 89.8°F 77.5°F 29.86in - 87% -
15:26 81.7°F 89.8°F 77.5°F 29.86in - 87% -
15:47 83.1°F 92.6°F 77.5°F 29.84in - 83% -
15:56 83.1°F 92.6°F 77.5°F 29.84in - 83% -
16:17 84.0°F 92.9°F 76.2°F 29.83in - 77% -
16:27 84.0°F 92.9°F 76.2°F 29.83in - 77% -
16:47 84.0°F 92.2°F 75.4°F 29.81in - 75% -
16:56 84.0°F 92.2°F 75.4°F 29.81in - 75% -
17:18 84.4°F 92.4°F 75.0°F 29.80in - 73% -
17:26 84.4°F 92.4°F 75.0°F 29.80in - 73% -
17:48 84.6°F 92.9°F 75.2°F 29.79in - 73% -
17:56 84.6°F 92.9°F 75.2°F 29.79in - 73% -
18:26 84.4°F 92.4°F 75.0°F 29.78in - 73% -
Comma Delimited File
Powered by Weather Underground, Inc.